STARLINK-4169 (53280 NORAD) Tracking and Keplerian Element Data

This shows tracking and keplerian element data for the satellite.

Feedback or suggestion? Click here.




ElementValue
Catalog53280
NameSTARLINK-4169
Epoch Orbit130
Epoch Day269.91667824
Epoch Year2022
RAAN84.7751
Inclination53.2059
Eccentricity6.2E-05
Argument of Perigee55.3445
Mean Anonmoly45.7082
Mean Motion15.69525404
Decay Rate0.00095999
L11 53280U 22086AQ 22269.91667824 .00095999 00000+0 79417-3 0 9991
L22 53280 53.2059 84.7751 0000620 55.3445 45.7082 15.69525404 1301

Live tracking and technical data element details for STARLINK-4169 (NORAD 53280). STARLINK-4169 can be tracked NOW for your location showing map with azimuth and elevation plus other details from your city location.

Track the satellite on the map from your city or location and see movement details for azimuth, elevation, latitude, longitude, range, height, and movement on the map or in text.







IsCatalogInMostPopularTable: catalog: 53280, numindb: 4
Update: records affected: 1



GetName: 53280 STARLINK-4169

Hit Count: updated at: Thu, 29 Sep 2022 12:29:48 GMT